SCOUT X-4 DEB, 3750

Orbit data source: Space-Track

SCOUT X-4 DEB, 3750 is space debris in LEO originally from a launch on Thu, 19 Dec 1963 UTC launched from the Air Force Western Test Range (AFWTR). Debris objects in space refer to the collection of defunct objects orbiting the Earth. Examples of debris include non-operational satellites, rocket bodies, and fragments generated from explosions, collisions, or faulty payload assembly.

Loading next visibility...
Identifier
3750, 1963-053J
Orbit
LEO
Country
Flag of USUS
Related business
Manufacturer
Unknown
Mission
Spacecraft
Bus & Motor
Unknown
Mass
Unknown
Launch date (UTC)
1963-12-19 (62 years ago)
Launch vehicle
Unknown
Launch site
Air Force Western Test Range (AFWTR)
Object type
Payload
Rocket body
Debris
Shape & HBR
Unknown
Radar Cross Section
Small (<0.1 m²)

Expand to show TLE details & history
Last TLE update: 23 hours ago

TLE from 23 hours ago
0 SCOUT X-4 DEB
1 03750U 63053J   25258.46290914  .00060980  00000-0  78779-2 0  9992
2 03750  78.5690  59.6262 0190412  71.4320 290.7450 14.68712621767955
Epoch: 2025-09-15T11:06Z
TLE epoch observation values (Epoch: 2025-09-15T11:06:35.349Z)
Latitude
-0.00013°
Longitude
-101.68832°
Altitude
622.802 km
Speed
7.572 km/s
True Right ascension
03h 58m 30s
True Declination
0° 00' 00"
Sunlit
Object was in daylight at epoch
Visualization orbit readout
Latitude
Unknown
Longitude
Unknown
Altitude
Unknown
Speed
Unknown
Apparent Right ascension
Unknown
Apparent Declination
Unknown
Sunlit
N/A
Visualization observer readout
Local Sidereal Time
02:57:46
Azimuth
Unknown
Elevation
Unknown
Doppler factor
Unknown
Orbital elements
Apogee altitude
796.487 km
Perigee altitude
528.366 km
Semi-major axis
7,040.563 km
Eccentricity
0.01904
Inclination
78.569°
RAAN
59.6262°
Arg. of periapsis
71.432°
True anomaly
288.6876°
Mean anomaly
290.745°
Eccentric anomaly
289.71799°
Mean motion
3.67394 °/min
Orbital period
97.99 mins
BSTAR
0.0078779
Loading maneuver chart data...
Computing Atmospheric mass density...
Loading historical data...
Loading historical data...
Loading historical data...
Loading historical data...
Loading historical data...
Loading historical data...
Loading historical data...

Documentation

Showing up to 5 results
|